Vertical_Velocity
0 -0 2 -1 -2 -3 -2 3 2 2 -1 -1 1 0 -0 -1 -3 -1 -1 -2 -1 -1 -2 -1 -2 -2 -2 -3 -1 -0 0 2 -0 -2 -1 -2 -0 -1 -2 -3 -3 0 -5
-1 3 0 3 1 -3 -3 -1 2 0 0 1 0 1 0 -1 -0 -1 -1 -3 -1 -1 -2 -0 -3 -3 -4 -2 -3 -1 -0 0 1 1 2 -0 0 -1 -2 1 1 -3 1
0 2 0 1 1 4 0 -3 1 0 1 0 -1 2 1 -0 -1 -2 -2 -1 -1 -2 -1 -2 -2 -2 -3 -3 -3 -2 0 1 -1 1 4 -4 -1 -0 2 1 2 3 0
1 0 1 2 -1 0 5 3 -4 -0 -1 -0 1 2 2 2 -0 -2 -3 -2 -3 -2 -2 -3 -3 -2 -3 -3 -3 -1 -1 -1 -0 -3 2 -2 -5 -2 2 3 3 -0 18
-2 1 3 0 2 0 3 2 -1 -0 -2 -2 -2 -1 0 -1 -0 -1 -2 -3 -3 -3 -3 -2 -2 -3 -2 -2 -1 -1 -1 -2 0 -1 6 2 -5 -0 -0 5 1 -2 3
-1 -1 1 1 -1 -1 2 1 0 1 -1 -1 -1 -3 -1 -1 -2 -1 -1 -2 -2 -3 -4 -2 -3 -2 -2 -1 -2 -2 -0 -2 -0 1 -0 2 -3 -2 -1 3 1 3 16
4 -1 -1 0 -1 1 -1 -2 -2 -2 0 -0 -1 -2 -1 -1 -1 -3 -1 -1 -1 -2 -3 -1 -2 -2 -2 -1 -2 -1 -2 -3 -1 10 0 -0 4 -3 -4 3 2 -1 8
2 -1 -2 -1 -2 -1 -1 0 -0 -0 -2 -3 -2 -1 -0 1 -2 -2 -2 -3 -1 -2 -2 -1 -1 -0 -0 -1 -1 -0 -2 -2 -0 -1 4 3 4 -2 3 -2 1 -1 11
-6 5 -4 -1 -2 -3 -2 -1 -1 -1 0 -0 -2 -3 -3 -2 -2 -1 -1 -1 -0 -1 -2 -1 -1 -0 -1 -1 -2 1 -3 -1 -2 -1 1 1 -0 -4 -4 0 -1 1 -0
-2 0 4 -3 -2 -2 -2 -1 -1 0 1 0 -1 -2 -1 -2 -4 -3 -3 -3 -4 -3 -2 -1 -1 -0 -1 -1 -2 -0 -1 -1 -1 -1 1 -3 1 1 -2 0 -1 -0 2
-3 -1 -2 -1 -1 -0 -1 -2 -1 -1 -0 1 -0 -1 -1 -1 -2 -0 -0 0 -1 -3 -3 -1 -2 -1 -2 -1 -3 -1 -1 -1 -0 -4 2 1 -1 -2 -2 0 -2 2 1
2 -3 -0 -0 1 -2 -2 -2 -2 -1 2 -1 -1 -1 -1 -0 -1 -1 -1 -0 -0 0 -0 -1 -3 -2 -2 -1 -2 -3 -1 -2 -4 4 2 -1 -2 3 1 1 3 0 3
1 -2 4 -1 -1 1 -4 4 -3 -3 -3 1 1 -1 -1 -0 -0 -1 -2 -2 -2 -1 -0 1 -0 -1 -1 -2 -2 -3 -2 -2 5 1 -1 -5 1 -0 -4 -1 1 1 0
-0 -10 -0 1 4 1 -3 -2 -2 -1 -4 -2 0 0 -1 -1 0 -1 -1 0 -0 -1 -1 -1 -1 -2 1 3 -1 -4 -1 -2 3 -0 -1 -1 -2 -0 -4 1 -1 1 -1
-5 -3 -14 6 1 0 -4 0 -0 -4 -1 -5 -2 1 3 -1 -3 -1 -2 -2 -2 -0 -0 0 2 -2 -3 1 2 -0 -3 -0 -11 6 2 -0 1 -0 -4 -1 2 6 -2
-6 -3 4 -7 11 3 7 -4 3 -2 -3 -1 -4 -2 -2 2 -2 -1 -4 -4 -2 -3 -3 -1 -4 3 -0 -2 2 -2 -1 0 -1 -6 -2 -2 -0 -2 0 -2 -1 3 -2
-13 -4 -0 -7 -1 6 5 -2 -7 -4 -9 -0 -2 -4 1 -2 1 -1 0 -3 -2 -5 -3 -4 -3 -5 2 0 2 -2 -2 3 -1 -1 -0 -2 -2 -1 1 -2 -0 1 2
5 6 17 8 -8 6 -7 3 -6 30 -12 -10 -7 -3 -1 -1 -2 -1 -0 -1 -2 -1 -4 -4 -5 -2 -7 0 -2 -0 -3 -2 5 -1 -1 -1 -1 -1 -0 1 -1 1 -0
2 6 -4 8 1 -2 7 -9 22 -36 2 -11 -5 -4 -3 5 -4 -2 1 3 -2 -2 1 -0 -4 -4 -1 -8 -6 6 -1 -3 2 4 -1 -1 -0 -0 1 -0 1 -1 -1
-11 3 -1 -1 1 -9 -6 -3 12 12 156 -23 -1 -0 1 -5 9 -12 -1 2 -4 -4 2 2 -1 -3 -2 2 -7 -6 1 0 -1 1 3 -0 -1 -2 -0 2 1 -0 2
-2 -4 -6 6 3 3 -14 -4 -10 -26 -20 -9 -1 1 0 -10 5 3 -13 -2 2 -7 -4 8 1 0 1 5 8 -8 7 -5 4 -2 1 2 3 -2 -1 0 0 2 -1
3 -6 -2 -1 6 -3 6 0 -7 -2 1 5 0 1 -1 -4 -4 14 11 -6 1 5 -13 5 6 0 -3 1 4 -8 1 -2 -2 -1 1 1 -0 2 0 -2 -1 2 -0
-1 4 -3 -6 -0 -1 -3 -0 3 -4 3 -0 8 5 2 0 -8 19 4 3 1 5 0 -7 6 1 3 -7 2 -8 -3 -0 -7 -0 -1 1 -2 -3 0 3 -1 -1 2
9 -2 3 -1 -7 -1 3 -3 -5 1 -7 4 6 6 1 -0 -5 -14 2 0 13 -8 6 -4 5 -2 3 -2 12 -4 -3 -5 -3 -2 4 -1 -3 0 -2 -2 1 -3 -0
4 2 2 1 1 -2 -4 -0 0 -3 -3 5 3 -3 -3 -1 -3 -3 7 -9 3 6 4 -7 -1 -4 3 5 -1 94 9 -1 -5 -6 35 10 -4 -2 -3 -5 -2 -3 -1
-8 -5 2 6 0 1 4 2 -2 -4 1 -0 6 3 0 -0 -11 -1 4 10 -6 -2 3 9 6 3 11 16 -4 35 -1 -10 6 9 -3 3 -2 8 -5 -0 -2 -3 -3
Height
5864 5863 5861 5860 5859 5858 5858 5858 5858 5859 5859 5859 5859 5859 5859 5858 5857 5857 5856 5855 5855 5854 5853 5852 5851 5850 5849 5847 5845 5842 5839 5836 5831 5827 5824 5822 5821 5821 5822 5824 5823 5820 5820
5862 5862 5861 5860 5858 5856 5857 5857 5857 5858 5858 5858 5858 5858 5857 5857 5856 5856 5855 5855 5854 5853 5852 5851 5850 5849 5847 5846 5844 5842 5838 5835 5830 5825 5821 5818 5818 5818 5818 5819 5819 5817 5816
5861 5860 5860 5859 5857 5855 5855 5855 5855 5856 5857 5857 5857 5857 5856 5856 5855 5855 5854 5853 5852 5852 5851 5850 5849 5847 5846 5844 5842 5840 5836 5832 5826 5822 5821 5817 5818 5814 5816 5815 5814 5811 5811
5859 5858 5858 5857 5855 5854 5853 5853 5854 5854 5854 5855 5855 5855 5855 5854 5854 5853 5852 5851 5850 5850 5849 5848 5847 5846 5844 5842 5840 5837 5834 5828 5823 5819 5816 5815 5817 5814 5812 5813 5812 5811 5808
5856 5855 5855 5855 5854 5853 5851 5851 5851 5851 5852 5852 5852 5852 5852 5852 5852 5851 5850 5850 5849 5847 5847 5846 5845 5843 5842 5840 5838 5835 5831 5826 5820 5816 5812 5813 5813 5812 5810 5810 5809 5809 5806
5853 5853 5852 5851 5851 5850 5850 5848 5848 5848 5848 5849 5849 5850 5849 5849 5849 5848 5849 5847 5847 5845 5844 5844 5842 5841 5839 5838 5835 5832 5829 5825 5820 5814 5815 5813 5810 5809 5808 5809 5809 5808 5808
5850 5850 5849 5848 5847 5846 5846 5846 5846 5845 5845 5845 5845 5846 5845 5845 5845 5845 5846 5845 5844 5843 5842 5841 5839 5838 5837 5835 5833 5830 5827 5824 5819 5815 5811 5808 5808 5806 5805 5807 5806 5807 5807
5846 5847 5845 5844 5844 5843 5843 5843 5842 5842 5842 5842 5841 5841 5841 5841 5841 5841 5842 5841 5840 5840 5839 5838 5836 5835 5834 5832 5831 5828 5825 5823 5819 5814 5810 5809 5808 5807 5806 5804 5803 5805 5805
5840 5842 5842 5841 5839 5839 5839 5839 5839 5839 5838 5837 5837 5837 5837 5837 5837 5836 5837 5836 5836 5835 5834 5833 5832 5831 5830 5829 5828 5825 5822 5820 5818 5813 5809 5808 5807 5806 5805 5803 5801 5801 5802
5835 5835 5836 5835 5835 5834 5833 5833 5834 5834 5834 5833 5833 5832 5832 5832 5832 5832 5832 5832 5831 5830 5830 5829 5828 5827 5826 5825 5824 5822 5820 5817 5816 5813 5811 5806 5804 5803 5803 5801 5800 5799 5798
5830 5830 5829 5830 5829 5828 5828 5827 5828 5830 5830 5829 5828 5828 5828 5828 5827 5827 5826 5826 5825 5825 5824 5823 5823 5822 5821 5821 5820 5819 5817 5815 5812 5810 5807 5803 5801 5800 5800 5799 5796 5796 5796
5825 5825 5824 5824 5823 5823 5822 5822 5821 5822 5824 5825 5824 5823 5822 5822 5822 5822 5821 5821 5820 5820 5819 5818 5817 5817 5817 5816 5815 5814 5812 5811 5809 5807 5804 5800 5799 5798 5797 5795 5795 5795 5796
5818 5817 5818 5817 5817 5817 5815 5815 5814 5814 5816 5817 5818 5817 5816 5816 5816 5816 5816 5816 5815 5815 5815 5814 5813 5812 5812 5810 5810 5809 5808 5807 5807 5804 5801 5797 5796 5794 5793 5792 5792 5794 5793
5808 5806 5808 5809 5809 5809 5808 5808 5808 5807 5807 5809 5810 5811 5811 5810 5810 5810 5811 5810 5810 5810 5810 5810 5810 5809 5808 5807 5805 5804 5804 5803 5801 5801 5798 5794 5793 5791 5790 5790 5790 5792 5793
5800 5800 5798 5801 5800 5801 5800 5799 5800 5799 5799 5800 5801 5802 5804 5804 5804 5804 5805 5805 5804 5805 5805 5804 5805 5804 5803 5801 5801 5801 5799 5798 5795 5796 5794 5791 5791 5789 5787 5787 5788 5789 5791
5791 5793 5792 5791 5793 5792 5791 5790 5791 5791 5791 5792 5792 5795 5797 5797 5797 5798 5798 5799 5799 5799 5799 5799 5799 5800 5798 5796 5795 5794 5795 5793 5793 5790 5790 5789 5787 5786 5785 5784 5784 5786 5787
5782 5779 5779 5779 5782 5783 5783 5782 5781 5783 5781 5783 5784 5785 5789 5790 5790 5790 5791 5792 5793 5793 5793 5793 5793 5792 5794 5793 5792 5791 5790 5790 5788 5787 5788 5785 5784 5783 5784 5782 5783 5785 5784
5774 5773 5774 5771 5771 5773 5772 5773 5773 5768 5769 5772 5774 5775 5777 5783 5783 5783 5784 5784 5784 5786 5786 5786 5786 5786 5785 5787 5786 5787 5786 5785 5786 5784 5783 5782 5782 5780 5780 5781 5781 5782 5783
5768 5768 5764 5762 5761 5763 5766 5768 5755 5745 5758 5760 5765 5766 5768 5773 5775 5775 5776 5778 5775 5776 5779 5780 5779 5779 5779 5778 5778 5778 5782 5781 5778 5780 5779 5778 5777 5776 5777 5777 5778 5778 5780
5756 5755 5753 5751 5749 5749 5750 5756 5757 5749 5719 5751 5754 5757 5760 5760 5766 5767 5767 5769 5768 5766 5768 5772 5772 5770 5770 5772 5770 5769 5771 5774 5774 5774 5773 5773 5772 5772 5772 5771 5772 5773 5774
5743 5741 5740 5737 5737 5736 5735 5738 5741 5743 5741 5740 5743 5744 5747 5750 5753 5757 5757 5758 5760 5759 5759 5760 5763 5762 5762 5764 5763 5759 5761 5765 5767 5768 5768 5767 5768 5768 5768 5767 5767 5768 5769
5730 5727 5727 5724 5723 5722 5722 5723 5722 5725 5728 5730 5730 5734 5733 5736 5739 5745 5749 5749 5747 5746 5750 5750 5752 5753 5753 5753 5754 5752 5751 5756 5759 5759 5760 5761 5761 5762 5763 5762 5762 5762 5763
5717 5715 5713 5712 5711 5710 5709 5709 5708 5709 5713 5716 5719 5719 5723 5725 5729 5729 5735 5738 5736 5736 5737 5741 5741 5741 5741 5741 5742 5741 5742 5745 5750 5750 5751 5751 5754 5752 5756 5757 5757 5756 5757
5703 5702 5701 5698 5696 5696 5694 5693 5695 5694 5695 5701 5703 5706 5708 5710 5713 5717 5716 5722 5725 5725 5727 5727 5729 5729 5730 5730 5730 5730 5734 5737 5740 5742 5741 5742 5743 5745 5747 5748 5750 5750 5750
5686 5685 5683 5681 5680 5678 5677 5676 5677 5677 5679 5684 5686 5687 5691 5695 5698 5701 5703 5705 5712 5713 5713 5713 5714 5716 5718 5719 5719 5710 5718 5727 5727 5728 5727 5733 5733 5736 5739 5740 5741 5743 5744
5668 5667 5665 5664 5662 5660 5658 5655 5656 5658 5660 5664 5667 5670 5674 5677 5683 5688 5692 5692 5697 5699 5700 5700 5699 5702 5706 5707 5707 5707 5709 5714 5719 5717 5722 5725 5726 5726 5729 5732 5735 5736 5737